Date String (YYYY-MM-DD hh:mm:ss) UTC,Instrument flags,absolute air pressure of the measurement (hPa),sample flow rate (lpm),inlet stack bypass flow (lpm),air temperature of the measurement (°C),ambient temperature measured by the external sensor (°C),aerosol sample conditioner tube jacket temperature (°C),OPC LED temperature (°C),internal box temperature (°C),relative humidity of the measurement (%),span deviation,mass concentration of particles derived from Lorenz-Mie calculation of OPC scattering (μg/m³),mass concentration of particles derived from Lorenz-Mie calculation of OPC scattering (μg/m³),mass concentration of particles derived from Lorenz-Mie calculation of OPC scattering (μg/m³)
DateTimeUTC,F1_M11,P_M11,Q1_M11,Q2_M11,T1_M11,T2_M11,T3_M11,T4_M11,T5_M11,U1_M11,ZSPAN_M11,X0_M11,X2_M11,X1_M11
2023-07-26 20:00:00,SystemResetWarning,0833.6,4.99,000.00,028.4,025.6,000.0,036.7,029.9,28.7,0000.0,0011.34,0004.62,0003.44
2023-07-26 20:01:00,SystemResetWarning,0833.7,4.99,000.00,028.4,026.1,000.0,036.7,030.0,29.4,0000.0,0011.82,0004.59,0003.44
2023-07-26 20:02:00,SystemResetWarning,0833.7,5.00,000.00,028.5,026.6,000.0,036.8,030.1,29.7,0000.0,0011.51,0004.57,0003.44
2023-07-26 20:03:00,SystemResetWarning,0833.7,5.01,000.00,028.5,026.9,000.0,036.8,030.2,29.7,0000.0,0011.51,0004.57,0003.44
2023-07-26 20:04:00,SystemResetWarning,0833.6,5.00,000.00,028.6,027.0,000.0,036.8,030.3,29.9,0000.0,0011.91,0004.58,0003.44
2023-07-26 20:05:00,SystemResetWarning,0833.6,4.98,000.00,028.6,025.6,000.0,036.7,030.1,29.8,0000.0,0012.09,0004.60,0003.44
2023-07-26 20:06:00,SystemResetWarning,0833.7,5.02,000.00,028.5,024.7,000.0,036.6,029.9,30.1,0000.0,0011.97,0004.55,0003.42
2023-07-26 20:07:00,SystemResetWarning,0833.7,5.01,000.00,028.4,024.9,000.0,036.6,029.9,30.2,0000.0,0011.87,0004.52,0003.42
2023-07-26 20:08:00,SystemResetWarning,0833.7,4.98,000.00,028.4,025.3,000.0,036.7,029.8,30.7,0000.0,0012.16,0004.52,0003.41
2023-07-26 20:09:00,SystemResetWarning,0833.7,5.01,000.00,028.4,025.8,000.0,036.7,029.9,30.1,0000.0,0012.25,0004.47,0003.41
2023-07-26 20:10:00,SystemResetWarning,0833.8,5.01,000.00,028.4,026.2,000.0,036.7,030.0,29.4,0000.0,0012.01,0004.42,0003.40
2023-07-26 20:11:00,SystemResetWarning,0833.8,5.00,000.00,028.5,026.7,000.0,036.8,030.1,29.2,0000.0,0011.64,0004.43,0003.39
2023-07-26 20:12:00,SystemResetWarning,0833.8,5.00,000.00,028.5,027.0,000.0,036.8,030.2,29.5,0000.0,0011.15,0004.47,0003.40
2023-07-26 20:13:00,SystemResetWarning,0833.8,4.99,000.00,028.6,027.1,000.0,036.8,030.3,29.2,0000.0,0011.50,0004.44,0003.41
2023-07-26 20:14:00,SystemResetWarning,0833.9,4.99,000.00,028.6,025.8,000.0,036.7,030.1,29.1,0000.0,0012.14,0004.49,0003.41
2023-07-26 20:15:00,SystemResetWarning,0833.9,5.01,000.00,028.5,024.7,000.0,036.6,029.9,29.0,0000.0,0011.97,0004.54,0003.44
2023-07-26 20:16:00,SystemResetWarning,0834.0,5.01,000.00,028.4,024.9,000.0,036.6,029.8,30.0,0000.0,0012.50,0004.63,0003.48
2023-07-26 20:17:00,SystemResetWarning,0834.0,5.00,000.00,028.4,025.2,000.0,036.6,029.8,31.5,0000.0,0012.99,0004.79,0003.53
2023-07-26 20:18:00,SystemResetWarning,0834.0,5.00,000.00,028.4,025.7,000.0,036.7,029.9,32.0,0000.0,0013.59,0004.90,0003.57
2023-07-26 20:19:00,SystemResetWarning,0834.1,5.00,000.00,028.4,026.2,000.0,036.7,030.0,32.2,0000.0,0013.98,0005.04,0003.62
2023-07-26 20:20:00,SystemResetWarning,0834.1,5.01,000.00,028.5,026.6,000.0,036.7,030.2,33.0,0000.0,0016.60,0005.19,0003.68
2023-07-26 20:21:00,SystemResetWarning,0834.1,4.99,000.00,028.5,027.0,000.0,036.8,030.2,34.7,0000.0,0019.02,0005.33,0003.75
2023-07-26 20:22:00,SystemResetWarning,0834.1,5.01,000.00,028.6,027.3,000.0,036.8,030.4,34.0,0000.0,0021.30,0005.45,0003.80
2023-07-26 20:23:00,SystemResetWarning,0834.0,4.98,000.00,028.7,026.8,000.0,036.8,030.3,35.1,0000.0,0022.42,0005.57,0003.83
2023-07-26 20:24:00,SystemResetWarning,0834.0,5.02,000.00,028.8,025.2,000.0,036.7,030.2,35.9,0000.0,0024.46,0005.68,0003.86
2023-07-26 20:25:00,SystemResetWarning,0834.0,5.02,000.00,029.0,024.6,000.0,036.7,030.1,35.2,0000.0,0024.38,0005.79,0003.89
2023-07-26 20:26:00,SystemResetWarning,0834.1,4.97,000.00,029.2,024.8,000.0,036.7,030.1,34.1,0000.0,0024.80,0005.86,0003.90
2023-07-26 20:27:00,SystemResetWarning,0834.0,5.01,000.00,029.3,025.2,000.0,036.8,030.1,34.8,0000.0,0024.92,0005.86,0003.89
2023-07-26 20:28:00,SystemResetWarning,0834.1,5.01,000.00,029.5,025.7,000.0,036.9,030.2,34.6,0000.0,0024.28,0005.78,0003.87
2023-07-26 20:29:00,SystemResetWarning,0834.1,5.00,000.00,029.7,026.2,000.0,037.0,030.3,33.2,0000.0,0023.92,0005.73,0003.86
2023-07-26 20:30:00,SystemResetWarning,0834.1,5.00,000.00,029.8,026.6,000.0,037.1,030.4,32.5,0000.0,0023.50,0005.65,0003.84
2023-07-26 20:31:00,SystemResetWarning,0834.0,5.01,000.00,029.9,027.0,000.0,037.2,030.5,32.6,0000.0,0022.51,0005.57,0003.83
2023-07-26 20:32:00,SystemResetWarning,0834.0,5.00,000.00,030.0,027.2,000.0,037.3,030.6,33.4,0000.0,0019.66,0005.55,0003.81
2023-07-26 20:33:00,SystemResetWarning,0834.0,4.98,000.00,030.0,026.1,000.0,037.3,030.5,34.2,0000.0,0018.66,0005.47,0003.79
2023-07-26 20:34:00,SystemResetWarning,0833.9,5.01,000.00,030.0,024.8,000.0,037.3,030.4,35.4,0000.0,0018.21,0005.39,0003.79
2023-07-26 20:35:00,SystemResetWarning,0833.8,5.01,000.00,030.1,024.7,000.0,037.3,030.3,35.1,0000.0,0017.61,0005.37,0003.81
2023-07-26 20:36:00,SystemResetWarning,0833.8,4.98,000.00,030.2,025.0,000.0,037.4,030.2,33.2,0000.0,0016.50,0005.31,0003.82
2023-07-26 20:37:00,SystemResetWarning,0833.9,4.99,000.00,030.3,025.5,000.0,037.5,030.3,34.0,0000.0,0016.49,0005.30,0003.85
2023-07-26 20:38:00,SystemResetWarning,0833.8,5.01,000.00,030.4,026.0,000.0,037.6,030.5,35.8,0000.0,0016.77,0005.37,0003.88
2023-07-26 20:39:00,SystemResetWarning,0833.9,5.00,000.00,030.7,026.5,000.0,037.7,030.7,35.3,0000.0,0017.55,0005.45,0003.91
2023-07-26 20:40:00,SystemResetWarning,0834.0,5.01,000.00,031.0,026.9,000.0,037.8,030.9,34.8,0000.0,0018.23,0005.56,0003.95
2023-07-26 20:41:00,SystemResetWarning,0833.9,4.98,000.00,031.2,027.2,000.0,037.9,031.0,34.7,0000.0,0019.67,0005.70,0003.99
2023-07-26 20:42:00,SystemResetWarning,0834.0,5.01,000.00,031.4,027.0,000.0,038.0,031.1,34.4,0000.0,0021.74,0005.88,0004.03
2023-07-26 20:43:00,SystemResetWarning,0833.9,4.99,000.00,031.6,025.6,000.0,038.0,030.9,32.9,0000.0,0022.65,0005.98,0004.06
2023-07-26 20:44:00,SystemResetWarning,0833.9,5.00,000.00,031.6,024.8,000.0,038.1,030.7,33.4,0000.0,0022.03,0006.02,0004.07
2023-07-26 20:45:00,SystemResetWarning,0833.9,5.02,000.00,031.5,024.9,000.0,038.2,030.5,33.5,0000.0,0021.80,0006.05,0004.08
2023-07-26 20:46:00,SystemResetWarning,0833.9,4.99,000.00,031.4,025.3,000.0,038.3,030.4,33.7,0000.0,0021.99,0006.06,0004.07
2023-07-26 20:47:00,SystemResetWarning,0833.9,4.99,000.00,031.3,025.8,000.0,038.5,030.6,32.3,0000.0,0024.55,0006.11,0004.06
2023-07-26 20:48:00,SystemResetWarning,0834.0,5.00,000.00,031.3,026.3,000.0,038.6,030.7,32.6,0000.0,0025.23,0006.15,0004.05
2023-07-26 20:49:00,SystemResetWarning,0833.9,5.00,000.00,031.3,026.7,000.0,038.6,030.8,31.4,0000.0,0025.04,0006.15,0004.04
2023-07-26 20:50:00,SystemResetWarning,0833.9,5.02,000.00,031.3,027.1,000.0,038.7,030.9,31.5,0000.0,0025.04,0006.14,0004.05
2023-07-26 20:51:00,SystemResetWarning,0834.0,5.00,000.00,031.3,027.4,000.0,038.8,031.0,32.2,0000.0,0024.94,0006.14,0004.04
2023-07-26 20:52:00,SystemResetWarning,0833.9,4.99,000.00,031.3,026.6,000.0,038.7,031.0,31.7,0000.0,0024.01,0006.09,0004.04
2023-07-26 20:53:00,SystemResetWarning,0833.9,4.99,000.00,031.3,025.2,000.0,038.6,030.8,32.3,0000.0,0023.83,0006.03,0004.02
2023-07-26 20:54:00,SystemResetWarning,0834.0,5.01,000.00,031.2,024.8,000.0,038.6,030.7,33.7,0000.0,0022.45,0006.00,0004.01
2023-07-26 20:55:00,SystemResetWarning,0833.9,4.99,000.00,031.0,025.1,000.0,038.6,030.4,34.8,0000.0,0023.50,0006.01,0004.00
2023-07-26 20:56:00,SystemResetWarning,0833.9,5.03,000.00,030.9,025.5,000.0,038.6,030.5,34.8,0000.0,0023.40,0006.03,0004.00
2023-07-26 20:57:00,SystemResetWarning,0834.0,4.98,000.00,031.0,026.0,000.0,038.7,030.7,34.6,0000.0,0022.89,0006.08,0004.00
2023-07-26 20:58:00,SystemResetWarning,0834.0,5.00,000.00,031.0,026.4,000.0,038.7,030.8,33.5,0000.0,0021.65,0006.06,0004.01
2023-07-26 20:59:00,SystemResetWarning,0834.0,5.01,000.00,031.0,026.9,000.0,038.7,030.9,34.5,0000.0,0019.67,0005.97,0003.99
